Location: Oroua River
(40.4333°S, 175.4333°E)
Time: 14:18:23
(UTC+00:00)

Cosmos 1703 Rocket - Pass Details

Date: 03 February 2023
Orbit: 605 x 631 km, 82.5° (Epoch: 23 March)

Event Time Altitude Azimuth Distance (km) Brightness Sun altitude
Exits shadow 14:36:49 70° 116° (ESE) 685 3.8 -26.1°
Drops below altitude 10° 14:41:05 10° 168° (SSE) 2,048 7.1 -25.7°
Sets 14:43:21 0° 170° (S) 2,964 8.1 -25.4°
